EW5804 Weather Reports


Display with metric or nautical units.
time (UTC)temp
F
wind
direction
speed
MPH
gust
MPH
rain 1hr
in
rain 24hr
in
rain mn
in
humidity
%
barometer
mb
20210122033104 39 196 1.0 1.0 0.00 0.00 0.00 81 1007.6
20210122032553 39 196 1.0 2.0 0.00 0.00 0.00 81 1007.4
20210122032052 39 196 0.0 2.0 0.00 0.00 0.00 81 1007.5
20210122031545 39 196 0.0 2.0 0.00 0.00 0.00 81 1007.4
20210122031043 39 196 1.0 2.0 0.00 0.00 0.00 81 1007.4
20210122030536 39 196 1.0 2.0 0.00 0.00 0.00 81 1007.5
20210122030040 39 196 0.0 2.0 0.00 0.00 0.00 81 1007.5
20210122025531 39 196 0.0 2.0 0.00 0.00 0.00 81 1007.6
20210122025022 39 196 0.0 2.0 0.00 0.00 0.00 81 1007.4
20210122024517 39 196 0.0 2.0 0.00 0.00 0.00 81 1007.4
20210122024020 39 196 0.0 2.0 0.00 0.00 0.00 82 1007.6
20210122023501 39 196 0.0 2.0 0.00 0.00 0.00 82 1007.6
20210122022955 39 196 0.0 1.0 0.00 0.00 0.00 82 1007.6
20210122022446 39 196 1.0 2.0 0.00 0.00 0.00 81 1007.6
20210122021947 39 196 1.0 2.0 0.00 0.00 0.00 81 1007.5
20210122021439 39 270 1.0 2.0 0.00 0.00 0.00 82 1007.6
20210122020933 39 271 0.0 2.0 0.00 0.00 0.00 82 1007.6
20210122020424 39 271 1.0 2.0 0.00 0.00 0.00 82 1007.6
20210122015918 40 271 0.0 2.0 0.00 0.00 0.00 81 1007.7
20210122015412 40 271 0.0 1.0 0.00 0.00 0.00 80 1007.6
20210122014906 40 271 0.0 1.0 0.00 0.00 0.00 80 1007.5
20210122014402 40 271 0.0 1.0 0.00 0.00 0.00 79 1007.5
20210122013853 40 271 0.0 1.0 0.00 0.00 0.00 78 1007.5
20210122013349 41 271 0.0 2.0 0.00 0.00 0.00 78 1007.6
20210122012842 41 271 0.0 2.0 0.00 0.00 0.00 78 1007.5
20210122012338 41 271 0.0 2.0 0.00 0.00 0.00 78 1007.5
20210122011839 41 271 0.0 2.0 0.00 0.00 0.00 77 1007.5
20210122011336 41 272 0.0 2.0 0.00 0.00 0.00 77 1007.5
20210122010840 41 272 0.0 1.0 0.00 0.00 0.00 77 1007.4
20210122010339 41 272 1.0 2.0 0.00 0.00 0.00 78 1007.4
20210122005836 41 272 1.0 3.0 0.00 0.00 0.00 78 1007.3
20210122005338 41 272 2.0 3.0 0.00 0.00 0.00 78 1007.3
20210122004837 41 274 1.0 3.0 0.00 0.00 0.00 79 1007.3
20210122004607 41 238 1.0 5.0 0.00 0.00 0.00 78 1007.2
20210122004336 41 238 1.0 5.0 0.00 0.00 0.00 78 1007.2
20210122003836 41 238 1.0 5.0 0.00 0.00 0.00 78 1007.1
20210122003340 41 286 1.0 3.0 0.00 0.00 0.00 79 1007.2
20210122002835 41 226 1.0 2.0 0.00 0.00 0.00 79 1007.1
20210122002336 41 224 0.0 2.0 0.00 0.00 0.00 78 1007.1
20210122001837 41 224 0.0 3.0 0.00 0.00 0.00 78 1007.1
20210122001336 41 220 1.0 3.0 0.00 0.00 0.00 78 1007.1
20210122000837 41 216 1.0 3.0 0.00 0.00 0.00 77 1007.0
20210122000335 42 207 0.0 2.0 0.00 0.00 0.00 77 1007.1
20210121235831 42 207 1.0 3.0 0.00 0.00 0.00 77 1007.1
20210121235333 42 196 1.0 3.0 0.00 0.00 0.00 76 1007.0
20210121234831 43 226 1.0 2.0 0.00 0.00 0.00 76 1006.9
20210121234337 43 226 0.0 2.0 0.00 0.00 0.00 74 1007.0
20210121233831 43 225 0.0 2.0 0.00 0.00 0.00 74 1007.0
20210121233331 44 225 0.0 2.0 0.00 0.00 0.00 74 1006.9
20210121232835 44 225 0.0 2.0 0.00 0.00 0.00 73 1006.8
20210121232331 45 259 0.0 1.0 0.00 0.00 0.00 73 1006.8
20210121231835 45 259 0.0 1.0 0.00 0.00 0.00 72 1006.9
20210121231332 46 259 0.0 1.0 0.00 0.00 0.00 71 1006.8
20210121230831 46 259 0.0 1.0 0.00 0.00 0.00 71 1006.7
20210121230331 47 259 0.0 1.0 0.00 0.00 0.00 69 1006.6
20210121225831 47 259 0.0 1.0 0.00 0.00 0.00 68 1006.6
20210121225332 48 259 0.0 1.0 0.00 0.00 0.00 66 1006.7
20210121224832 48 259 1.0 2.0 0.00 0.00 0.00 65 1006.6
20210121224330 49 259 1.0 2.0 0.00 0.00 0.00 64 1006.5
20210121223829 49 259 0.0 2.0 0.00 0.00 0.00 63 1006.4
20210121223329 49 259 0.0 2.0 0.00 0.00 0.00 62 1006.3
20210121222834 50 259 0.0 2.0 0.00 0.00 0.00 61 1006.1
20210121222332 51 269 0.0 1.0 0.00 0.00 0.00 60 1006.0
20210121221831 51 269 0.0 3.0 0.00 0.00 0.00 59 1006.0
20210121221331 51 269 1.0 3.0 0.00 0.00 0.00 58 1006.1
20210121220830 52 273 1.0 4.0 0.00 0.00 0.00 58 1006.1
20210121220328 52 168 2.0 7.0 0.00 0.00 0.00 57 1006.1
20210121215831 53 238 2.0 7.0 0.00 0.00 0.00 57 1005.9
20210121215329 53 197 2.0 4.0 0.00 0.00 0.00 55 1005.7
20210121214826 53 242 2.0 7.0 0.00 0.00 0.00 55 1005.8
20210121214329 53 237 2.0 7.0 0.00 0.00 0.00 55 1005.8
20210121213822 54 256 4.0 11.0 0.00 0.00 0.00 54 1006.0
20210121213315 54 257 4.0 11.0 0.00 0.00 0.00 54 1006.0
20210121212810 54 239 4.0 9.0 0.00 0.00 0.00 54 1006.0
20210121212305 54 226 4.0 9.0 0.00 0.00 0.00 53 1005.9
20210121211753 54 225 5.0 11.0 0.00 0.00 0.00 53 1005.9
20210121211250 55 221 4.0 12.0 0.00 0.00 0.00 53 1005.9
20210121210742 55 249 4.0 10.0 0.00 0.00 0.00 53 1006.0
20210121210244 55 215 5.0 13.0 0.00 0.00 0.00 52 1005.9
20210121205732 55 305 5.0 13.0 0.00 0.00 0.00 53 1005.9
20210121205224 55 259 4.0 10.0 0.00 0.00 0.00 52 1006.0
20210121204718 55 228 4.0 14.0 0.00 0.00 0.00 52 1005.9
20210121204215 55 234 3.0 14.0 0.00 0.00 0.00 51 1006.0
20210121203706 56 238 4.0 11.0 0.00 0.00 0.00 51 1006.1
20210121203202 56 233 5.0 13.0 0.00 0.00 0.00 51 1006.0
20210121202653 56 261 6.0 14.0 0.00 0.00 0.00 51 1006.0
20210121202148 56 263 6.0 14.0 0.00 0.00 0.00 50 1006.0
20210121201642 56 249 5.0 10.0 0.00 0.00 0.00 51 1006.1
20210121201136 56 222 7.0 17.0 0.00 0.00 0.00 50 1006.2
20210121200628 56 251 7.0 17.0 0.00 0.00 0.00 50 1006.2
20210121200132 56 270 6.0 11.0 0.00 0.00 0.00 51 1006.3
20210121195624 55 251 6.0 15.0 0.00 0.00 0.00 51 1006.3
20210121195110 55 236 7.0 17.0 0.00 0.00 0.00 51 1006.4
20210121194610 55 280 6.0 17.0 0.00 0.00 0.00 49 1006.3
20210121194104 56 289 4.0 10.0 0.00 0.00 0.00 51 1006.6
20210121193553 55 257 5.0 10.0 0.00 0.00 0.00 52 1006.6
20210121193052 55 307 5.0 12.0 0.00 0.00 0.00 50 1006.7
20210121192541 55 263 6.0 13.0 0.00 0.00 0.00 52 1006.7
20210121192038 55 245 7.0 14.0 0.00 0.00 0.00 51 1006.8
20210121191530 55 258 6.0 14.0 0.00 0.00 0.00 50 1006.8
20210121191025 55 254 4.0 13.0 0.00 0.00 0.00 50 1006.8
20210121190523 55 273 2.0 8.0 0.00 0.00 0.00 51 1006.9
20210121190301 55 271 4.0 10.0 0.00 0.00 0.00 51 1006.9
20210121185512 55 210 4.0 10.0 0.00 0.00 0.00 52 1007.0
20210121185001 54 230 4.0 10.0 0.00 0.00 0.00 54 1006.9
20210121184453 53 222 5.0 10.0 0.00 0.00 0.00 57 1007.1
20210121183952 53 257 4.0 9.0 0.00 0.00 0.00 57 1007.1
20210121183446 52 240 3.0 8.0 0.00 0.00 0.00 56 1007.3
20210121182935 51 194 3.0 7.0 0.00 0.00 0.00 57 1007.3
20210121182430 51 274 2.0 8.0 0.00 0.00 0.00 57 1007.4
20210121181924 52 284 2.0 8.0 0.00 0.00 0.00 56 1007.6
20210121181417 52 196 3.0 7.0 0.00 0.00 0.00 57 1007.7
20210121180913 51 310 3.0 7.0 0.00 0.00 0.00 56 1007.8
20210121180412 51 273 3.0 8.0 0.00 0.00 0.00 57 1007.8
20210121175859 51 238 5.0 9.0 0.00 0.00 0.00 56 1008.0
20210121175358 51 257 4.0 9.0 0.00 0.00 0.00 55 1008.2
20210121174848 51 271 2.0 7.0 0.00 0.00 0.00 58 1008.4
20210121174341 50 254 3.0 7.0 0.00 0.00 0.00 60 1008.5
20210121173841 49 240 3.0 7.0 0.00 0.00 0.00 59 1008.7
20210121173332 49 245 3.0 7.0 0.00 0.00 0.00 59 1008.8
20210121172831 48 207 3.0 8.0 0.00 0.00 0.00 60 1008.9
20210121172320 48 180 2.0 8.0 0.00 0.00 0.00 59 1009.2
20210121171812 47 244 2.0 5.0 0.00 0.00 0.00 61 1009.3
20210121171304 47 268 2.0 5.0 0.00 0.00 0.00 61 1009.4
20210121170809 47 207 2.0 4.0 0.00 0.00 0.00 63 1009.4
20210121170258 46 234 2.0 4.0 0.00 0.00 0.00 63 1009.7
20210121165758 46 222 2.0 7.0 0.00 0.00 0.00 65 1009.7
20210121165255 45 242 2.0 7.0 0.00 0.00 0.00 64 1009.8
20210121164800 44 206 2.0 8.0 0.00 0.00 0.00 65 1009.9
20210121164301 44 205 3.0 8.0 0.00 0.00 0.00 65 1010.0
20210121163754 44 214 3.0 8.0 0.00 0.00 0.00 67 1010.3
20210121163253 43 214 3.0 10.0 0.00 0.00 0.00 67 1010.4
20210121162757 43 250 4.0 11.0 0.00 0.00 0.00 67 1010.5
20210121162255 43 155 3.0 11.0 0.00 0.00 0.00 67 1010.9
20210121161755 43 159 3.0 10.0 0.00 0.00 0.00 68 1011.2
20210121161258 42 174 3.0 9.0 0.00 0.00 0.00 68 1011.3
20210121160754 42 182 3.0 9.0 0.00 0.00 0.00 69 1011.5
20210121160255 42 147 3.0 9.0 0.00 0.00 0.00 70 1011.7
20210121155755 42 203 2.0 6.0 0.00 0.00 0.00 70 1011.8
20210121155255 42 204 2.0 5.0 0.00 0.00 0.00 71 1012.0
20210121154753 42 215 1.0 4.0 0.00 0.00 0.00 71 1012.1
20210121154254 42 188 2.0 3.0 0.00 0.00 0.00 72 1012.2
20210121153751 41 20 1.0 3.0 0.00 0.00 0.00 71 1012.1
20210121153244 41 224 1.0 3.0 0.00 0.00 0.00 70 1012.4
20210121152743 41 222 1.0 4.0 0.00 0.00 0.00 71 1012.7
20210121152234 41 220 2.0 4.0 0.00 0.00 0.00 70 1012.8
20210121151731 41 213 2.0 4.0 0.00 0.00 0.00 71 1012.9
20210121151235 40 215 2.0 4.0 0.00 0.00 0.00 72 1012.9
20210121150725 40 216 2.0 6.0 0.00 0.00 0.00 73 1012.8
20210121150225 40 189 1.0 6.0 0.00 0.00 0.00 73 1013.0
20210121145724 39 210 0.0 3.0 0.00 0.00 0.00 75 1013.0
20210121145223 39 186 1.0 4.0 0.00 0.00 0.00 76 1012.9
20210121144724 39 186 1.0 4.0 0.00 0.00 0.00 74 1012.9
20210121144222 39 198 1.0 3.0 0.00 0.00 0.00 75 1013.0
20210121143724 39 198 1.0 3.0 0.00 0.00 0.00 76 1013.2
20210121143219 38 238 1.0 3.0 0.00 0.00 0.00 75 1013.4
20210121142719 38 201 0.0 3.0 0.00 0.00 0.00 74 1013.1
20210121142222 38 152 1.0 4.0 0.00 0.00 0.00 76 1013.1
20210121141718 38 151 0.0 4.0 0.00 0.00 0.00 75 1013.0
20210121141214 37 222 0.0 1.0 0.00 0.00 0.00 76 1013.0
20210121140716 37 222 0.0 2.0 0.00 0.00 0.00 76 1013.1
20210121140216 37 222 1.0 3.0 0.00 0.00 0.00 76 1013.0
20210121135710 37 224 1.0 3.0 0.00 0.00 0.00 78 1013.1
20210121135212 36 176 0.0 2.0 0.00 0.00 0.00 80 1013.1
20210121134711 36 177 1.0 4.0 0.00 0.00 0.00 81 1013.2
20210121134213 36 172 1.0 4.0 0.00 0.00 0.00 82 1013.3
20210121133713 35 187 1.0 3.0 0.00 0.00 0.00 81 1013.4
20210121133212 35 187 1.0 3.0 0.00 0.00 0.00 81 1013.6
20210121132711 34 166 1.0 4.0 0.00 0.00 0.00 83 1013.2
20210121132213 34 158 1.0 4.0 0.00 0.00 0.00 83 1013.5
20210121131712 33 195 0.0 2.0 0.00 0.00 0.00 85 1013.6
20210121131212 33 195 1.0 2.0 0.00 0.00 0.00 84 1013.5
20210121130711 33 195 0.0 2.0 0.00 0.00 0.00 85 1013.6
20210121130214 33 195 0.0 2.0 0.00 0.00 0.00 85 1013.7
20210121125710 33 195 0.0 3.0 0.00 0.00 0.00 85 1013.8
20210121125212 33 188 1.0 3.0 0.00 0.00 0.00 85 1013.7
20210121124715 33 267 0.0 2.0 0.00 0.00 0.00 85 1013.7
20210121124212 33 271 0.0 2.0 0.00 0.00 0.00 85 1013.7
20210121123711 33 206 0.0 2.0 0.00 0.00 0.00 86 1013.8
20210121123207 33 203 1.0 3.0 0.00 0.00 0.00 86 1013.9
20210121122716 32 203 1.0 4.0 0.00 0.00 0.00 86 1013.9
20210121122214 32 194 1.0 4.0 0.00 0.00 0.00 86 1013.9
20210121121705 32 131 1.0 5.0 0.00 0.00 0.00 86 1013.9
20210121121154 33 131 0.0 5.0 0.00 0.00 0.00 86 1014.0
20210121120749 33 177 0.0 4.0 0.00 0.00 0.00 86 1014.1
20210121120146 33 178 1.0 4.0 0.00 0.00 0.00 86 1014.2
20210121115646 33 205 0.0 2.0 0.00 0.00 0.00 86 1014.3
20210121115142 33 205 0.0 2.0 0.00 0.00 0.00 86 1014.3
20210121114625 33 205 0.0 2.0 0.00 0.00 0.00 86 1014.7
20210121114120 33 206 0.0 2.0 0.00 0.00 0.00 86 1014.6
20210121113612 33 206 0.0 1.0 0.00 0.00 0.00 86 1014.6
20210121113110 33 206 0.0 1.0 0.00 0.00 0.00 86 1014.6
20210121112601 33 206 0.0 0.0 0.00 0.00 0.00 86 1014.7
20210121112054 33 206 0.0 1.0 0.00 0.00 0.00 87 1014.7
20210121111550 32 206 0.0 1.0 0.00 0.00 0.00 87 1014.8
20210121111051 32 206 1.0 2.0 0.00 0.00 0.00 88 1014.8
20210121110537 31 206 1.0 2.0 0.00 0.00 0.00 88 1014.9
20210121110044 31 206 0.0 2.0 0.00 0.00 0.00 89 1014.8
20210121105543 31 203 0.0 1.0 0.00 0.00 0.00 89 1014.5
20210121105027 31 203 0.0 1.0 0.00 0.00 0.00 89 1014.4
20210121104521 31 203 0.0 2.0 0.00 0.00 0.00 89 1014.6
20210121104017 30 203 0.0 2.0 0.00 0.00 0.00 89 1014.5
20210121103500 30 203 0.0 2.0 0.00 0.00 0.00 89 1014.6
20210121102956 30 203 0.0 3.0 0.00 0.00 0.00 90 1014.8
20210121102452 29 203 0.0 3.0 0.00 0.00 0.00 89 1014.9
20210121101943 29 207 0.0 1.0 0.00 0.00 0.00 90 1015.1
20210121101442 29 207 0.0 2.0 0.00 0.00 0.00 89 1014.9
20210121100930 29 207 0.0 2.0 0.00 0.00 0.00 89 1014.9
20210121100427 29 207 0.0 1.0 0.00 0.00 0.00 89 1015.3
20210121095920 29 207 1.0 2.0 0.00 0.00 0.00 89 1015.5
20210121095412 28 207 1.0 2.0 0.00 0.00 0.00 89 1015.6
20210121094906 28 224 0.0 2.0 0.00 0.00 0.00 89 1015.5
20210121094401 28 324 0.0 1.0 0.00 0.00 0.00 88 1015.5
20210121093853 28 324 0.0 2.0 0.00 0.00 0.00 88 1015.6
20210121093357 29 325 0.0 2.0 0.00 0.00 0.00 88 1015.8
20210121092843 29 325 0.0 2.0 0.00 0.00 0.00 88 1015.9
20210121092338 29 325 0.0 1.0 0.00 0.00 0.00 88 1016.2
20210121091833 29 325 0.0 1.0 0.00 0.00 0.00 89 1016.1
20210121091327 28 325 0.0 1.0 0.00 0.00 0.00 88 1016.2
20210121090819 28 325 0.0 1.0 0.00 0.00 0.00 89 1016.3
20210121090319 28 325 0.0 1.0 0.00 0.00 0.00 88 1016.4
20210121085811 28 325 1.0 2.0 0.00 0.00 0.00 88 1016.4
20210121085310 28 325 1.0 2.0 0.00 0.00 0.00 87 1016.3
20210121084818 29 325 0.0 1.0 0.00 0.00 0.00 87 1016.5
20210121084312 29 325 0.0 0.0 0.00 0.00 0.00 86 1016.8
20210121083839 29 325 0.0 1.0 0.00 0.00 0.00 86 1016.8
20210121083319 29 324 0.0 1.0 0.00 0.00 0.00 87 1016.8
20210121082808 29 325 0.0 1.0 0.00 0.00 0.00 86 1016.7
20210121082308 29 325 0.0 1.0 0.00 0.00 0.00 86 1016.8
20210121081809 29 325 0.0 1.0 0.00 0.00 0.00 86 1017.0
20210121081307 29 325 0.0 1.0 0.00 0.00 0.00 86 1017.0
20210121080807 29 325 0.0 1.0 0.00 0.00 0.00 87 1016.8
20210121080303 29 325 0.0 1.0 0.00 0.00 0.00 87 1017.1
20210121075805 29 325 0.0 1.0 0.00 0.00 0.00 87 1017.1
20210121075258 29 325 1.0 2.0 0.00 0.00 0.00 87 1017.1
20210121074801 29 325 1.0 2.0 0.00 0.00 0.00 87 1017.1
20210121074256 29 325 0.0 1.0 0.00 0.00 0.00 88 1017.0
20210121073757 29 325 0.0 1.0 0.00 0.00 0.00 87 1017.0
20210121073256 29 325 1.0 2.0 0.00 0.00 0.00 87 1017.1
20210121072755 29 325 1.0 2.0 0.00 0.00 0.00 87 1017.2
20210121072253 29 325 1.0 2.0 0.00 0.00 0.00 86 1017.2
20210121071752 29 325 0.0 1.0 0.00 0.00 0.00 86 1017.3
20210121071242 30 325 0.0 1.0 0.00 0.00 0.00 85 1017.3
20210121070745 30 325 0.0 1.0 0.00 0.00 0.00 85 1017.5
20210121070233 30 325 0.0 1.0 0.00 0.00 0.00 85 1017.4
20210121065722 30 325 0.0 0.0 0.00 0.00 0.00 86 1017.5
20210121065227 30 325 0.0 0.0 0.00 0.00 0.00 86 1017.4
20210121064720 30 325 0.0 0.0 0.00 0.00 0.00 86 1017.6
20210121064218 30 325 0.0 0.0 0.00 0.00 0.00 85 1017.7
20210121063719 30 325 0.0 0.0 0.00 0.00 0.00 86 1017.6
20210121063220 30 325 0.0 1.0 0.00 0.00 0.00 86 1017.7
20210121062715 29 325 0.0 1.0 0.00 0.00 0.00 86 1017.5
20210121061717 29 325 0.0 1.0 0.00 0.00 0.00 87 1017.5
20210121061221 29 325 0.0 1.0 0.00 0.00 0.00 87 1017.5
20210121060718 29 325 0.0 2.0 0.00 0.00 0.00 87 1017.5
20210121060223 29 325 0.0 2.0 0.00 0.00 0.00 88 1017.6
20210121055717 28 325 1.0 2.0 0.00 0.00 0.00 88 1017.8
20210121055222 28 325 1.0 2.0 0.00 0.00 0.00 87 1017.7
20210121054716 28 325 0.0 2.0 0.00 0.00 0.00 87 1017.8
20210121054211 29 325 0.0 1.0 0.00 0.00 0.00 88 1017.8
20210121053710 28 325 0.0 1.0 0.00 0.00 0.00 88 1018.2
20210121053217 28 325 1.0 1.0 0.00 0.00 0.00 88 1018.7
20210121052709 28 325 0.0 1.0 0.00 0.00 0.00 88 1018.5
20210121052210 28 325 0.0 1.0 0.00 0.00 0.00 87 1018.3
20210121051704 28 325 1.0 2.0 0.00 0.00 0.00 86 1018.5
20210121051201 29 325 1.0 2.0 0.00 0.00 0.00 86 1019.0
20210121050658 29 324 0.0 2.0 0.00 0.00 0.00 85 1019.3
20210121050134 29 324 0.0 0.0 0.00 0.00 0.00 85 1019.3
20210121045629 29 324 0.0 1.0 0.00 0.00 0.00 85 1019.3
20210121045126 29 324 0.0 2.0 0.00 0.00 0.00 85 1019.3
20210121044616 29 324 0.0 2.0 0.00 0.00 0.00 86 1019.3
20210121044115 29 324 0.0 1.0 0.00 0.00 0.00 86 1019.4
20210121043604 29 324 0.0 1.0 0.00 0.00 0.00 86 1019.4
20210121043100 29 324 0.0 1.0 0.00 0.00 0.00 86 1019.6
20210121042552 29 324 1.0 2.0 0.00 0.00 0.00 86 1019.5
20210121042048 29 324 2.0 3.0 0.00 0.00 0.00 86 1019.3
20210121041540 29 324 1.0 3.0 0.00 0.00 0.00 86 1019.3
20210121041035 29 323 0.0 2.0 0.00 0.00 0.00 85 1019.6
20210121040535 30 323 0.0 1.0 0.00 0.00 0.00 85 1019.9
20210121040025 30 324 0.0 2.0 0.00 0.00 0.00 84 1020.1
20210121035517 30 323 1.0 2.0 0.00 0.00 0.00 84 1020.2
20210121035027 30 323 1.0 2.0 0.00 0.00 0.00 84 1020.3
20210121034518 30 323 1.0 2.0 0.00 0.00 0.00 83 1020.4
20210121033958 30 323 1.0 2.0 0.00 0.00 0.00 83 1020.4